Location: Whispering Pines Observatory
(39.4020°N, 104.7430°W)
Time: 07:41:51
(UTC-06:00)

MOS 1 Rocket - Visible Passes

Search period start: 26 August 2016 00:00
Search period end: 05 September 2016 00:00
Orbit: 614 x 832 km, 97.4° (Epoch: 25 August)

Date Brightness Start Highest point End Pass type
(mag) Time Alt. Az. Time Alt. Az. Time Alt. Az.
26 Aug 6.2 04:40:05 10° ENE 04:41:20 11° E 04:42:35 10° ESE visible
27 Aug 4.5 05:26:57 10° NNE 05:30:59 40° E 05:35:01 10° SSE visible
28 Aug 6.2 04:40:13 10° ENE 04:41:41 11° E 04:43:08 10° ESE visible
29 Aug 4.4 05:27:15 10° NNE 05:31:19 41° E 05:35:23 10° S visible
30 Aug 6.1 04:40:23 10° ENE 04:42:02 12° E 04:43:41 10° ESE visible
31 Aug 4.4 05:27:34 10° NNE 05:31:39 42° E 05:35:46 10° S visible
01 Sep 6.1 04:40:33 10° ENE 04:42:22 12° E 04:44:13 10° ESE visible
02 Sep 4.3 05:27:52 10° NNE 05:31:59 44° E 05:36:09 10° S visible
03 Sep 6.1 04:40:43 10° ENE 04:42:43 13° E 04:44:44 10° ESE visible
04 Sep 4.3 05:28:10 10° NNE 05:32:18 45° E 05:36:32 10° S visible
